Погода в Новой Косе

Россия / Республика Дагестан     43°33′11″N   47°21′57″E
темп.,
°C
ветер,
м/с
пор.,
м/с
влажн.,
%
обл.,
%
осадки,
мм/ч
давл.,
гПа
погр.,
м
25 июня, сб
сб2500:00+20вюв3777100 0.0 1009163
03:00+19вюв33835 0.0 100944
06:00+23вюв366715 0.0 1009534
09:00+26вюв4546100 0.0 10091046
12:00+27в554199 0.0 10091182
15:00+28в6641100 0.0 10081087
18:00+24в3462100 0.1 1009407
21:00+21сз227996 0.4 100917
26 июня, вс
вс2600:00+21з3378100 0.0 100855
03:00+20сз2478100 0.0 100783
06:00+21зсз4673100 0.0 1008177
09:00+28сз434485 0.0 10081097
12:00+30всв433799 0.0 10061502
15:00+31всв5434100 0.0 10051457
18:00+30ссв5537100 0.0 10051022
21:00+23з5765100 0.0 1007127
27 июня, пн
пн2700:00+20зсз71283100 0.7 1008284
03:00+20зсз7128046 0.8 1008302
06:00+22з812707 0.0 1009419
09:00+28зсз675434 0.0 10091257
12:00+31св65427 0.0 10091464
15:00+31ссв76400 0.0 10091260
18:00+27с675063 0.0 1009622
21:00+22сз5106372 0.0 1010283
28 июня, вт
вт2800:00+21зсз596879 0.0 1010179
03:00+20зсз5869100 0.0 1009140
06:00+22зсз676132 0.0 1009246
09:00+29с56380 0.0 10081491
12:00+31ссв88340 0.0 10081673
15:00+30ссв88360 0.0 10081534
18:00+28ссв57340 0.0 10091025
21:00+22ссз33546 0.0 101122
29 июня, ср
ср2900:00+21зсз3455100 0.0 101149
03:00+20сз455417 0.0 101074
06:00+23зсз45484 0.0 1011175
09:00+30сз33350 0.0 10111345
12:00+29всв984962 0.0 10111063
15:00+27всв875694 0.0 10121051
18:00+24всв6668100 0.0 1013894
21:00+22всв467196 0.0 1014604